Regional Weather Roundup
Issued by NWS Lake Charles, LA

Home | Current Version | Previous Version | Text Only | Print | Product List | Glossary On
Versions: 1 2 3 4 5 6 7 8 9 10 11 12 13 14 15 16 17 18 19 20 21 22 23 24 25 26 27 28 29 30 31 32 33 34 35 36 37 38 39 40 41 42 43 44 45 46 47 48 49 50
000
ASUS44 KLCH 290210
RWRLCH
RWRLCH
REGIONAL WEATHER ROUNDUP
NATIONAL WEATHER SERVICE LAKE CHARLES LA
900 PM CDT FRI AUG 28 2015

Note: "fair" indicates few or no clouds below 12,000 feet with no
significant weather and/or obstructions to visibility.


ACROSS SOUTHEAST TEXAS

CITY           SKY/WX    TMP DP  RH WIND       PRES   REMARKS
BEAUMONT       CLEAR     74  68  81 S6        29.97R
BEAUMONT CITY    N/A     76  70  81 S3        29.97R
ORANGE         CLEAR     77  65  68 CALM      29.99R
JASPER         CLEAR     77  70  78 CALM      29.99R
$$

ACROSS CENTRAL LOUISIANA

CITY           SKY/WX    TMP DP  RH WIND       PRES   REMARKS
LEESVILLE      CLEAR     79  64  61 SE6       29.97R
FULLERTON        N/A     76  60  57 CALM      29.96R
ALEXANDRIA INT CLEAR     77  61  57 CALM      29.97R
ESLER FIELD      N/A     74  63  68 CALM      29.99R
DERIDDER         N/A     82  61  49 SE5       29.99R
OAKDALE          N/A     69  68  94 CALM      29.98R
OPELOUSAS        N/A     70  65  84 CALM      29.98S
$$

ACROSS SOUTHWEST AND SOUTH CENTRAL LOUISIANA

CITY           SKY/WX    TMP DP  RH WIND       PRES   REMARKS
SULPHUR        CLEAR     77  66  68 CALM      29.99R
LAKE CHARLES   CLEAR     76  67  73 S5        29.98R
CHENNAULT INT  NOT AVBL
CAMERON PHI    CLEAR     82  64  54 S7        30.01R
DEQUINCY         N/A     74  67  77 CALM      29.98R
JENNINGS         N/A     77  64  64 CALM      29.98R
LAFAYETTE      CLEAR     77  68  73 CALM      29.98R
NEW IBERIA     CLEAR     76  69  79 W5        29.99R
ABBEVILLE        N/A     76  64  68 CALM      29.98S
PATTERSON      CLEAR     73  66  78 CALM      29.99R
SALT POINT       N/A     80  67  64 CALM      29.96R
$$

SELECTED SITES ACROSS THE REGION

CITY           SKY/WX    TMP DP  RH WIND       PRES   REMARKS
HOUSTON BUSH   PTCLDY    78  67  68 S5        29.95R
HOUSTON HOBBY  PTCLDY    80  69  69 S7        29.96R
GALVESTON      CLEAR     82  67  60 SE9       29.99R
COLLEGE STAT   CLEAR     82  67  60 S7        29.95R
CONROE         CLEAR     78  68  71 CALM      29.96R
HUNTSVILLE     CLEAR     84  66  54 S5        29.95R
LUFKIN         CLEAR     77  60  55 CALM      29.95R
SHREVEPORT     CLEAR     78  62  57 CALM      29.96R
MONROE         CLEAR     75  60  59 E3        29.99R
NATCHEZ MS     CLEAR     73  63  68 S3        30.01R
BATON ROUGE    CLEAR     77  67  71 CALM      29.98R
N.O. INTL ARPT PTCLDY    82  61  48 E5        29.99R
SLIDELL        CLEAR     75  68  78 CALM      30.00R
$$

MARINE REPORTS

STATION/POSITION TIME  TEMP    WIND        PRES    VSBY  WAVE
                       AIR SEA DIR/SP/G                  HT/PER
                 (UTC) (F)     (DEG/KT/KT) (MB)    (MI)  (FT/S)
BUOY 30 S HIGH I 0150   84 86  140/  8/ 10 1014.9R         1
SEA RIM ST PARK  0200   83     170/  6/  7 1015.8R
PORT ARTHUR      NOT AVBL
SABINE PASS N    NOT AVBL
TEXAS POINT      NOT AVBL
CALCASIEU PASS   NOT AVBL
LK CHARLES BEACH NOT AVBL
MARSH ISLAND     0100   83     280/  5/  7   N/A           0
FRESH WATER LOCK NOT AVBL
AMERADA PASS     NOT AVBL
$$


USA.gov is the U.S. government's official web portal to all federal, state and local government web resources and services.